Tracking 19720 objects as of 26-Jun-2019
HD Live streaming from Space Station
objects crossing your sky now

FENGYUN 1C DEB

Track FENGYUN 1C DEB now!
10-day predictions


NORAD ID: 31608
Int'l Code: 1999-025BZN
Perigee: 552.6 km
Apogee: 868.8 km
Inclination: 98.6 °
Period: 98.8 minutes
Semi major axis: 7081 km
RCS: 0.0149 m2 (small)
Launch date: May 10, 1999
Source: People's Republic of China (PRC)
Launch site: Taiyaun Space Center, China (TSC)

Note: This is SATELLITE DEBRIS
aabbcc
Your satellite tracking list
Your tracking list is empty




NASA's NSSDC Master Catalog

Two Line Element Set (TLE):
1 31608U 99025BZN 19174.88504280  .00000342  00000-0  64829-4 0  9992
2 31608  98.5615 202.6039 0223279 213.7550 144.9263 14.56788232640964
Source of the keplerian elements: AFSPC